Dover AFB, DE

1:38 AM EDT on April 25, 2017 (GMT -0400)
Dover Air Force Base

Weather History for KDOV - May, 2013

Change the Weather History Date:

Sunday, May 12, 2013

  Actual Average Record
Temperature  
Mean Temperature 60 °F -  
Max Temperature 67 °F 74 °F 90 °F (1959)
Min Temperature 53 °F 53 °F 37 °F (1963)
Degree Days  
Heating Degree Days 5    
Growing Degree Days 10 (Base 50)    
Moisture  
Dew Point 52 °F    
Average Humidity 77    
Maximum Humidity 100    
Minimum Humidity 29    
Precipitation  
Precipitation 0.15 in - - ()
Sea Level Pressure  
Sea Level Pressure 29.78 in    
Wind  
Wind Speed 8 mph (WNW)    
Max Wind Speed 22 mph    
Max Gust Speed 29 mph    
Visibility 10 miles    
Events Rain    
Averages and records for this station are not official NWS values.
T = Trace of Precipitation, MM = Missing Value Source: NWS Daily Summary

Daily Weather History Graph

Daily Weather History Graph

Search for Another Location

Airport or City:

Trip Planner

Search our weather history database for the weather conditions in past years. The results will help you decide how hot, cold, wet, or windy it might be!

Date:

Astronomy

May. 12, 2013 Rise Set
Actual Time 5:51 AM EDT 8:05 PM EDT
Civil Twilight 5:21 AM EDT 8:35 PM EDT
Nautical Twilight 4:44 AM EDT 9:12 PM EDT
Astronomical Twilight 4:04 AM EDT 9:52 PM EDT
Moon 7:44 AM EDT (5/12) 10:30 PM EDT (5/12)
Length of Visible Light 15h 14m
Length of Day
14h 14m
Waxing Crescent, 6% of the Moon is Illuminated
May 12
Waxing Crescent
May 18
First Quarter
May 25
Full
May 31
Last Quarter
Jun 8
New

Hourly Weather History & Observations

Time (EDT) Temp. Dew Point Humidity Pressure Visibility Wind Dir Wind Speed Gust Speed Precip Events Conditions
12:12 AM 62.6 °F 62.6 °F 100% 29.73 in 10.0 mi SSW 3.5 mph - N/A   Mostly Cloudy
12:27 AM 62.6 °F 62.6 °F 100% 29.72 in 10.0 mi South 2.3 mph - N/A   Light Drizzle
12:39 AM 62.6 °F 62.6 °F 100% 29.71 in 10.0 mi SSW 2.3 mph - N/A   Scattered Clouds
12:58 AM 62.2 °F 61.9 °F 99% 29.74 in 10.0 mi SSW 5.8 mph - 0.00 in   Clear
1:28 AM 62.6 °F 62.6 °F 100% 29.71 in 10.0 mi SSW 5.8 mph - N/A Rain Light Rain
1:43 AM 62.6 °F 62.6 °F 100% 29.73 in 9.0 mi SW 9.2 mph - N/A Rain Light Rain
1:58 AM 62.4 °F 62.1 °F 99% 29.74 in 5.0 mi WSW 8.1 mph - 0.05 in Rain Rain
2:03 AM 62.6 °F 62.6 °F 100% 29.73 in 6.0 mi WSW 8.1 mph - N/A Rain Light Rain
2:23 AM 62.6 °F 62.6 °F 100% 29.72 in 8.0 mi WNW 5.8 mph - N/A Rain Light Rain
2:38 AM 62.6 °F 62.6 °F 100% 29.72 in 10.0 mi WNW 8.1 mph - N/A Rain Light Rain
2:55 AM 62.6 °F 62.6 °F 100% 29.73 in 10.0 mi WNW 5.8 mph - N/A   Mostly Cloudy
2:58 AM 62.6 °F 62.6 °F 100% 29.74 in 10.0 mi West 5.8 mph - 0.06 in   Mostly Cloudy
3:03 AM 62.6 °F 62.6 °F 100% 29.72 in 10.0 mi NNW 6.9 mph - N/A   Overcast
3:05 AM 62.6 °F 62.6 °F 100% 29.72 in 10.0 mi North 6.9 mph - N/A Rain Light Rain
3:10 AM 62.6 °F 62.6 °F 100% 29.73 in 10.0 mi NNW 4.6 mph - N/A Rain Light Rain
3:20 AM 62.6 °F 62.6 °F 100% 29.72 in 10.0 mi NNW 5.8 mph - N/A   Light Drizzle
3:27 AM 62.6 °F 60.8 °F 94% 29.71 in 10.0 mi NNW 3.5 mph - N/A   Overcast
3:58 AM 61.0 °F 60.6 °F 99% 29.72 in 10.0 mi North 5.8 mph - 0.01 in   Overcast
4:46 AM 60.8 °F 60.8 °F 100% 29.74 in 10.0 mi WSW 3.5 mph - N/A   Light Drizzle
4:58 AM 60.8 °F 60.6 °F 99% 29.75 in 10.0 mi NW 1.2 mph - 0.00 in Rain Light Rain
5:41 AM 60.8 °F 60.8 °F 100% 29.74 in 10.0 mi West 4.6 mph - N/A   Mostly Cloudy
5:58 AM 60.8 °F 60.6 °F 99% 29.76 in 10.0 mi West 5.8 mph - 0.00 in   Overcast
6:00 AM 60.8 °F 60.8 °F 100% 29.75 in 10.0 mi West 5.8 mph - N/A Rain Light Rain
6:53 AM 59.0 °F 59.0 °F 100% 29.76 in 10.0 mi NW 8.1 mph - N/A   Mostly Cloudy
6:58 AM 59.5 °F 59.2 °F 99% 29.76 in 10.0 mi NW 5.8 mph - 0.03 in   Mostly Cloudy
7:58 AM 59.5 °F 59.2 °F 99% 29.78 in 10.0 mi NW 6.9 mph - N/A   Overcast
8:58 AM 61.2 °F 57.0 °F 86% 29.78 in 10.0 mi NW 5.8 mph - N/A   Mostly Cloudy
9:58 AM 63.9 °F 51.8 °F 65% 29.79 in 10.0 mi WNW 15.0 mph 25.3 mph N/A   Clear
10:58 AM 64.2 °F 51.3 °F 63% 29.79 in 10.0 mi West 17.3 mph 24.2 mph N/A   Mostly Cloudy
11:58 AM 65.1 °F 47.3 °F 52% 29.79 in 10.0 mi West 19.6 mph 24.2 mph N/A   Scattered Clouds
12:10 PM 66.2 °F 48.2 °F 52% 29.78 in 10.0 mi WNW 13.8 mph 28.8 mph N/A   Scattered Clouds
12:58 PM 64.4 °F 42.4 °F 45% 29.81 in 10.0 mi West 21.9 mph 26.5 mph N/A   Clear
1:53 PM 64.4 °F 41.0 °F 42% 29.80 in 10.0 mi West 17.3 mph 25.3 mph N/A   Clear
1:58 PM 65.1 °F 41.5 °F 42% 29.81 in 10.0 mi West 18.4 mph 25.3 mph N/A   Clear
2:58 PM 64.9 °F 32.4 °F 30% 29.82 in 10.0 mi West 18.4 mph 28.8 mph N/A   Clear
3:58 PM 64.2 °F 31.6 °F 30% 29.82 in 10.0 mi West 18.4 mph 28.8 mph N/A   Clear
4:58 PM 63.5 °F 30.6 °F 29% 29.85 in 10.0 mi WNW 18.4 mph 26.5 mph N/A   Clear
5:58 PM 62.8 °F 31.3 °F 31% 29.86 in 10.0 mi WNW 16.1 mph 27.6 mph N/A   Clear
6:58 PM 61.2 °F 30.6 °F 32% 29.88 in 10.0 mi WNW 19.6 mph 25.3 mph N/A   Clear
7:58 PM 58.5 °F 29.7 °F 33% 29.91 in 10.0 mi WNW 13.8 mph - N/A   Clear
8:58 PM 56.1 °F 30.2 °F 37% 29.94 in 10.0 mi West 9.2 mph - N/A   Clear
9:58 PM 54.3 °F 30.0 °F 39% 29.97 in 10.0 mi West 9.2 mph - N/A   Clear
10:58 PM 55.0 °F 28.2 °F 36% 29.98 in 10.0 mi WNW 16.1 mph - N/A   Clear
11:58 PM 53.2 °F 29.7 °F 40% 30.00 in 10.0 mi WNW 11.5 mph - N/A   Clear